Date String (YYYY-MM-DD hh:mm:ss) UTC,Instrument flags,absolute air pressure of the measurement (hPa),sample flow rate (lpm),inlet stack bypass flow (lpm),air temperature of the measurement (°C),ambient temperature measured by the external sensor (°C),aerosol sample conditioner tube jacket temperature (°C),OPC LED temperature (°C),internal box temperature (°C),relative humidity of the measurement (%),span deviation,mass concentration of particles derived from Lorenz-Mie calculation of OPC scattering (μg/m³),mass concentration of particles derived from Lorenz-Mie calculation of OPC scattering (μg/m³),mass concentration of particles derived from Lorenz-Mie calculation of OPC scattering (μg/m³)
DateTimeUTC,F1_M11,P_M11,Q1_M11,Q2_M11,T1_M11,T2_M11,T3_M11,T4_M11,T5_M11,U1_M11,ZSPAN_M11,X0_M11,X2_M11,X1_M11
2023-10-29 04:00:00,SystemResetWarning,0835.1,4.99,000.00,021.7,020.4,000.0,030.0,023.2,14.6,0002.3,0008.53,0006.18,0005.91
2023-10-29 04:01:00,SystemResetWarning,0834.8,5.00,000.00,021.7,020.4,000.0,030.0,023.2,14.5,0001.6,0008.48,0006.13,0005.87
2023-10-29 04:02:00,SystemResetWarning,0834.7,4.99,000.00,021.7,020.4,000.0,030.0,023.2,14.5,-000.1,0008.45,0006.08,0005.82
2023-10-29 04:03:00,SystemResetWarning,0834.8,5.00,000.00,021.7,020.4,000.0,030.0,023.2,14.5,0000.0,0008.43,0006.03,0005.77
2023-10-29 04:04:00,SystemResetWarning,0834.5,5.00,000.00,021.7,020.4,000.0,030.0,023.2,14.5,0000.0,0008.43,0005.97,0005.70
2023-10-29 04:05:00,SystemResetWarning,0834.5,5.02,000.00,021.7,020.4,000.0,030.0,023.2,14.5,0000.1,0008.43,0005.94,0005.64
2023-10-29 04:06:00,SystemResetWarning,0834.5,4.99,000.00,021.7,020.3,000.0,030.0,023.2,14.5,0001.5,0008.36,0005.89,0005.58
2023-10-29 04:07:00,SystemResetWarning,0834.5,5.00,000.00,021.7,020.3,000.0,030.0,023.3,14.5,0000.0,0008.20,0005.78,0005.50
2023-10-29 04:08:00,SystemResetWarning,0834.6,4.99,000.00,021.7,020.3,000.0,030.0,023.2,14.5,0000.0,0008.23,0005.74,0005.44
2023-10-29 04:09:00,SystemResetWarning,0835.0,4.99,000.00,021.7,020.3,000.0,030.0,023.2,14.6,0000.0,0008.28,0005.75,0005.42
2023-10-29 04:10:00,SystemResetWarning,0834.7,5.00,000.00,021.7,020.3,000.0,030.0,023.2,14.6,0000.0,0008.29,0005.75,0005.42
2023-10-29 04:11:00,SystemResetWarning,0834.5,5.00,000.00,021.7,020.3,000.0,030.0,023.2,14.6,0000.0,0008.29,0005.77,0005.44
2023-10-29 04:12:00,SystemResetWarning,0834.5,5.00,000.00,021.7,020.3,000.0,030.0,023.2,14.6,0000.0,0008.30,0005.78,0005.45
2023-10-29 04:13:00,SystemResetWarning,0834.5,5.01,000.00,021.7,020.3,000.0,030.0,023.2,14.6,0000.0,0008.30,0005.78,0005.45
2023-10-29 04:14:00,SystemResetWarning,0834.6,5.01,000.00,021.7,020.3,000.0,030.0,023.2,14.6,0000.0,0008.26,0005.78,0005.46
2023-10-29 04:15:00,SystemResetWarning,0834.6,5.00,000.00,021.7,020.3,000.0,030.0,023.2,14.6,0000.0,0008.25,0005.79,0005.49
2023-10-29 04:16:00,SystemResetWarning,0835.0,5.00,000.00,021.7,020.3,000.0,030.0,023.2,14.6,0000.0,0008.22,0005.79,0005.50
2023-10-29 04:17:00,SystemResetWarning,0834.7,5.00,000.00,021.7,020.3,000.0,030.0,023.2,14.6,0000.0,0008.16,0005.77,0005.51
2023-10-29 04:18:00,SystemResetWarning,0834.9,5.00,000.00,021.7,020.3,000.0,029.9,023.1,14.6,0000.0,0008.21,0005.81,0005.53
2023-10-29 04:19:00,SystemResetWarning,0835.3,4.99,000.00,021.7,020.3,000.0,030.0,023.2,14.6,0000.0,0008.20,0005.82,0005.55
2023-10-29 04:20:00,SystemResetWarning,0834.9,5.01,000.00,021.7,020.2,000.0,030.0,023.2,14.6,0000.0,0008.13,0005.81,0005.56
2023-10-29 04:21:00,SystemResetWarning,0834.7,5.01,000.00,021.7,020.2,000.0,030.0,023.2,14.6,0000.0,0008.15,0005.82,0005.55
2023-10-29 04:22:00,SystemResetWarning,0834.7,5.00,000.00,021.7,020.2,000.0,030.0,023.2,14.6,0000.0,0008.18,0005.82,0005.55
2023-10-29 04:23:00,SystemResetWarning,0834.9,4.99,000.00,021.7,020.2,000.0,030.0,023.2,14.6,0000.0,0008.19,0005.81,0005.54
2023-10-29 04:24:00,SystemResetWarning,0834.7,4.99,000.00,021.7,020.2,000.0,029.9,023.2,14.6,0000.0,0008.15,0005.82,0005.54
2023-10-29 04:25:00,SystemResetWarning,0834.8,4.99,000.00,021.6,020.2,000.0,029.9,023.2,14.6,0000.0,0008.17,0005.82,0005.55
2023-10-29 04:26:00,SystemResetWarning,0835.1,4.99,000.00,021.6,020.2,000.0,029.9,023.2,14.6,0000.0,0008.17,0005.82,0005.55
2023-10-29 04:27:00,SystemResetWarning,0835.2,5.01,000.00,021.6,020.2,000.0,029.9,023.1,14.6,0000.0,0008.18,0005.83,0005.55
2023-10-29 04:28:00,SystemResetWarning,0835.4,5.00,000.00,021.6,020.2,000.0,029.9,023.1,14.6,0000.0,0008.15,0005.81,0005.53
2023-10-29 04:29:00,SystemResetWarning,0835.4,5.00,000.00,021.6,020.2,000.0,029.9,023.1,14.6,0000.0,0008.11,0005.79,0005.52
2023-10-29 04:30:00,SystemResetWarning,0835.3,5.00,000.00,021.6,020.2,000.0,029.9,023.1,14.6,0000.0,0008.10,0005.79,0005.51
2023-10-29 04:31:00,SystemResetWarning,0835.4,5.00,000.00,021.6,020.2,000.0,029.9,023.1,14.6,0000.0,0008.12,0005.78,0005.50
2023-10-29 04:32:00,SystemResetWarning,0835.3,4.99,000.00,021.6,020.2,000.0,029.9,023.1,14.6,0000.0,0008.20,0005.77,0005.49
2023-10-29 04:33:00,SystemResetWarning,0835.4,4.99,000.00,021.6,020.2,000.0,029.9,023.1,14.6,0000.0,0008.23,0005.76,0005.47
2023-10-29 04:34:00,SystemResetWarning,0835.4,5.00,000.00,021.6,020.2,000.0,029.9,023.1,14.6,0000.0,0008.19,0005.74,0005.46
2023-10-29 04:35:00,SystemResetWarning,0835.3,5.01,000.00,021.6,020.2,000.0,029.9,023.1,14.6,0000.0,0008.17,0005.71,0005.44
2023-10-29 04:36:00,SystemResetWarning,0835.3,5.00,000.00,021.6,020.2,000.0,029.9,023.1,14.7,0000.0,0008.09,0005.67,0005.41
2023-10-29 04:37:00,SystemResetWarning,0835.2,5.01,000.00,021.6,020.2,000.0,029.9,023.1,14.7,0000.0,0008.04,0005.63,0005.37
2023-10-29 04:38:00,SystemResetWarning,0835.2,4.99,000.00,021.6,020.2,000.0,029.9,023.1,14.7,0000.0,0008.05,0005.62,0005.35
2023-10-29 04:39:00,SystemResetWarning,0835.3,4.99,000.00,021.6,020.1,000.0,029.9,023.1,14.7,0000.0,0008.14,0005.65,0005.35
2023-10-29 04:40:00,SystemResetWarning,0835.4,4.99,000.00,021.6,020.1,000.0,029.9,023.1,14.7,0000.0,0008.15,0005.65,0005.34
2023-10-29 04:41:00,SystemResetWarning,0835.3,5.00,000.00,021.6,020.1,000.0,029.9,023.1,14.7,0000.0,0008.10,0005.63,0005.33
2023-10-29 04:42:00,SystemResetWarning,0835.3,5.00,000.00,021.6,020.1,000.0,029.9,023.1,14.7,0000.0,0008.10,0005.63,0005.33
2023-10-29 04:43:00,SystemResetWarning,0835.3,5.01,000.00,021.6,020.1,000.0,029.9,023.1,14.7,0000.0,0008.01,0005.61,0005.33
2023-10-29 04:44:00,SystemResetWarning,0835.3,5.00,000.00,021.6,020.1,000.0,029.9,023.1,14.7,0000.0,0007.89,0005.60,0005.32
2023-10-29 04:45:00,SystemResetWarning,0834.9,5.01,000.00,021.6,020.1,000.0,029.9,023.1,14.7,0000.0,0007.92,0005.63,0005.34
2023-10-29 04:46:00,SystemResetWarning,0834.9,5.01,000.00,021.6,020.1,000.0,029.9,023.1,14.8,0000.0,0007.95,0005.67,0005.38
2023-10-29 04:47:00,SystemResetWarning,0835.0,5.01,000.00,021.5,020.1,000.0,029.9,023.1,14.8,0000.0,0008.00,0005.72,0005.42
2023-10-29 04:48:00,SystemResetWarning,0835.0,5.00,000.00,021.5,020.1,000.0,029.9,023.1,14.8,0000.0,0008.03,0005.76,0005.45
2023-10-29 04:49:00,SystemResetWarning,0835.1,4.99,000.00,021.5,020.1,000.0,029.9,023.0,14.8,0000.0,0008.01,0005.77,0005.47
2023-10-29 04:50:00,SystemResetWarning,0835.1,5.00,000.00,021.5,020.1,000.0,029.9,023.0,14.8,0000.0,0008.00,0005.77,0005.49
2023-10-29 04:51:00,SystemResetWarning,0835.2,5.00,000.00,021.5,020.1,000.0,029.8,023.1,14.8,0000.0,0008.00,0005.78,0005.51
2023-10-29 04:52:00,SystemResetWarning,0835.2,5.02,000.00,021.6,020.6,000.0,029.7,023.4,14.7,0000.0,0008.01,0005.79,0005.51
2023-10-29 04:53:00,SystemResetWarning,0835.3,5.00,000.00,021.7,021.5,000.0,029.7,023.7,14.6,0000.0,0008.00,0005.78,0005.51
2023-10-29 04:54:00,SystemResetWarning,0835.3,4.98,000.00,021.8,021.7,000.0,029.8,023.7,14.5,0000.0,0008.04,0005.78,0005.51
2023-10-29 04:55:00,SystemResetWarning,0835.2,5.01,000.00,021.8,021.6,000.0,029.9,023.6,14.5,0000.0,0008.15,0005.82,0005.51
2023-10-29 04:56:00,SystemResetWarning,0835.1,5.01,000.00,021.8,021.4,000.0,029.9,023.5,14.5,0000.0,0008.07,0005.78,0005.49
2023-10-29 04:57:00,SystemResetWarning,0835.1,4.99,000.00,021.8,021.2,000.0,030.0,023.4,14.5,0000.0,0007.99,0005.73,0005.47
2023-10-29 04:58:00,SystemResetWarning,0835.1,4.99,000.00,021.8,021.1,000.0,030.0,023.4,14.5,0000.0,0007.99,0005.72,0005.46
2023-10-29 04:59:00,SystemResetWarning,0835.1,5.01,000.00,021.8,020.9,000.0,030.0,023.3,14.5,0000.0,0008.02,0005.72,0005.46
